マクノート彗星

C/2006 B1 ( McNaught )

English version
Home page
Updated on September 23, 2007

---------------------------------------------------------------------

・ プロフィール

発見日 2006年1月27日
発見光度 18.3等
発見者 R. H. McNaught (Siding Spring Survey)

・ 軌道要素

Epoch 2005 Nov. 6.0 TT = JDT 2453680.5
T 2005 Nov. 19.51882 TT                                 MPC
q   2.9975416            (2000.0)            P               Q
z  +0.0007658      Peri.  302.48649     -0.69804960     -0.67799760
 +/-0.0000459      Node   161.23149     -0.11292711     +0.42186279
e   0.9977045      Incl.  134.28818     -0.70708856     +0.60195601

・ 光度変化

        m1 = 12.8 + 5 logΔ + 5.0 log r(t - 250)

---------------------------------------------------------------------

軌道要素はM.P.E.C. 2006-G45に掲載されたものです。
光度グラフはComet for Windowsで作成したものです。

---------------------------------------------------------------------

Copyright(C) Seiichi Yoshida (comet@aerith.net). All rights reserved.